SL-16 DEB, 44574

Orbit data source: Space-Track

SL-16 DEB, 44574 is space debris in LEO originally from a launch on Fri, 25 Dec 1992 UTC launched from the Tyuratam Missile And Space Complex (TTMTR). Debris objects in space refer to the collection of defunct objects orbiting the Earth. Examples of debris include non-operational satellites, rocket bodies, and fragments generated from explosions, collisions, or faulty payload assembly.

Loading next visibility...
Identifier
44574, 1992-093LW
Orbit
LEO
Country
Flag of CISCIS
Related business
Manufacturer
Unknown
Mission
Spacecraft
Bus & Motor
Unknown
Mass
Unknown
Launch date (UTC)
1992-12-25 (33 years ago)
Launch vehicle
Unknown
Launch site
Tyuratam Missile And Space Complex (TTMTR)
Object type
Payload
Rocket body
Debris
Shape & HBR
Unknown shape, 0.1 m
Radar Cross Section
Small (<0.1 m²)

Expand to show TLE details & history
Last TLE update: 1 day ago

TLE from 1 day ago
0 SL-16 DEB
1 44574U 92093LW  25346.86821126  .00012587  00000-0  31024-2 0  9996
2 44574  71.1194 141.2584 0086720 303.6881 180.6222 14.50008797627711
Epoch: 2025-12-12T20:50Z
TLE epoch observation values (Epoch: 2025-12-12T20:50:13.452Z)
Latitude
51.52369°
Longitude
-98.44417°
Altitude
795.013 km
Speed
7.429 km/s
True Right ascension
19h 43m 39s
True Declination
51° 21' 25"
Sunlit
Object was in daylight at epoch
Visualization orbit readout
Latitude
Unknown
Longitude
Unknown
Altitude
Unknown
Speed
Unknown
Apparent Right ascension
Unknown
Apparent Declination
Unknown
Sunlit
N/A
Visualization observer readout
Local Sidereal Time
23:41:03
Azimuth
Unknown
Elevation
Unknown
Doppler factor
Unknown
Orbital elements
Apogee altitude
785.084 km
Perigee altitude
661.913 km
Semi-major axis
7,101.635 km
Eccentricity
0.00867
Inclination
71.1194°
RAAN
141.2584°
Arg. of periapsis
303.6881°
True anomaly
180.61152°
Mean anomaly
180.6222°
Eccentric anomaly
180.61685°
Mean motion
3.62665 °/min
Orbital period
99.27 mins
BSTAR
0.0031024
Loading maneuver chart data...
Computing Atmospheric mass density...

Documentation

Showing up to 5 results
|